Regional Weather Roundup
Issued by NWS

Home | Current Version | Previous Version | Text Only | Print | Product List | Glossary Off
Versions: 1 2 3 4 5 6 7 8 9 10 11 12 13 14 15 16 17 18 19 20 21 22 23 24 25 26 27 28 29 30 31 32 33 34 35 36 37 38 39 40 41 42 43 44 45 46 47 48 49 50

000
ASUS45 KBOU 030107
RWRCO

WEATHER ROUNDUP FOR COLORADO
NATIONAL WEATHER SERVICE DENVER/BOULDER CO
700 PM MDT TUE SEP 02 2014

NOTE: "FAIR" INDICATES FEW OR NO CLOUDS BELOW 12000 FEET WITH NO
SIGNIFICANT WEATHER AND/OR OBSTRUCTIONS TO VISIBILITY.

COZ001>005-013-030-031-030200-
...NORTHWEST COLORADO...

CITY           SKY/WX    TMP DP  RH WIND       PRES   REMARKS
CRAIG          CLEAR     77  36  22 W12       30.03S
HAYDEN         CLEAR     75  36  23 W10       30.06S
MEEKER         PTCLDY    80  34  19 W5        30.05S
MOUNT WERNER   NOT AVBL
STEAMBOAT SPGS CLEAR     74  35  23 W8G17     30.09S
WALDEN         CLEAR     70  34  26 SW13      30.18S
$$

COZ006>008-011-030200-
...WEST CENTRAL VALLEYS...

CITY           SKY/WX    TMP DP  RH WIND       PRES   REMARKS
GRAND JUNCTION CLEAR     85  35  16 SW5       29.92F
MONTROSE       CLEAR     82  40  22 NW8       30.02S
EAGLE          PTCLDY    81  32  17 W12       30.09S
RIFLE          CLEAR     83  30  14 W10       29.98F
DELTA          CLEAR     90  34  14 SW5       29.96S
NUCLA          PTCLDY    84  32  15 SW8       30.05F
$$

COZ017>023-064>068-030200-
...SOUTHWEST COLORADO...

CITY           SKY/WX    TMP DP  RH WIND       PRES   REMARKS
DURANGO        CLEAR     82  27  13 SW10      30.10S
CORTEZ         CLEAR     85  31  14 NW9       30.04F
PAGOSA SPRINGS CLEAR     80  21  11 SW12      30.19S
TELLURIDE      CLEAR     72  27  18 W10G16    30.30S
WOLF CREEK PAS NOT AVBL
$$

COZ009-010-012-014-032>034-037-058>063-030200-
...CENTRAL COLORADO...

CITY           SKY/WX    TMP DP  RH WIND       PRES   REMARKS
ASPEN          PTCLDY    70  35  27 CALM      30.17S
BUENA VISTA    PTCLDY    76  22  13 W9        30.18S
COPPER MTN     PTCLDY    59  28  31 W16       30.53S
BERTHOUD PASS  MOCLDY    50  48  93 NW15      30.57S
COTTONWOOD PAS PTCLDY    70  19  14 N5        30.35S
GUNNISON       PTCLDY    75  30  19 SW6       30.19S
KREMMLING      PTCLDY    73  19  13 W12G17    30.15R
LEADVILLE      PTCLDY    64  29  26 N7        30.34S
MONARCH PASS   MOCLDY    59  28  31 W25       30.61F
SALIDA         PTCLDY    79  28  15 W6        30.20S
SUNLIGHT       CLEAR     59  36  41 CALM      30.44S
WILKERSON PASS NOT AVBL
$$

COZ069>075-030200-
...SAN LUIS VALLEY/SANGRE DE CRISTO MOUNTAINS...

CITY           SKY/WX    TMP DP  RH WIND       PRES   REMARKS
ALAMOSA        PTCLDY    77  35  21 SW10      30.13F
LA VETA PASS   NOT AVBL
SAGUACHE       MOCLDY    73  36  25 CALM      30.17S
$$

COZ035-036-038>040-030200-
...NORTHERN COLORADO FRONT RANGE...

CITY           SKY/WX    TMP DP  RH WIND       PRES   REMARKS
DENVER INTL AP PTCLDY    78  51  38 S14       29.96S
DMNS CITY PARK   N/A     81  48  31 S5        29.96S
AURORA         PTCLDY    80  49  34 S12       29.99S
FRONT RANGE AP NOT AVBL
ERIE MUNI ARPT PTCLDY    77  47  34 NW6       29.95R
BOULDER MUN AP PTCLDY    77  50  38 NW6       29.96S
CENTENNIAL     PTCLDY    78  49  35 S10       30.00F
BROOMFIELD     PTCLDY    82  46  28 NW6       29.99S
FORT COLLINS   PTCLDY    79  46  31 CALM      29.93R
LONGMONT       PTCLDY    79  56  46 NW5       29.96S
$$

COZ041-046-047-076>085-087-088-030200-
...PIKES PEAK/PALMER DIVIDE AND SOUTHERN FOOTHILLS...

CITY           SKY/WX    TMP DP  RH WIND       PRES   REMARKS
COLO. SPRINGS  PTCLDY    76  48  37 SE13      30.06S
A. F. ACADEMY  PTCLDY    74  49  40 SE12      30.07S
ELLICOTT       NOT AVBL
FALCON         CLEAR     71  49  46 SE8       30.12F
FORT CARSON    CLEAR     78  48  34 E10       30.03R
LIMON          CLEAR     73  45  36 SE8       30.01F
MONUMENT HILL  CLEAR     68  50  52 SE9       30.12S
TRINIDAD       PTCLDY    85  46  25 S21       30.00F
$$

COZ042>045-048>051-090-091-030200-
...NORTHEAST COLORADO...

CITY           SKY/WX    TMP DP  RH WIND       PRES   REMARKS
GREELEY ARPT   CLEAR     79  45  29 E6        29.92S
AKRON          CLEAR     79  48  33 S12       29.93F
BURLINGTON     CLEAR     79  50  36 S15       29.96S
WRAY             N/A     82  56  41 SE12G17   29.90F
STERLING       CLEAR     81  61  50 S3        29.87F
HOLYOKE        CLEAR     79  57  47 SE7       29.89F
FORT MORGAN    CLEAR     76  53  45 SE7       29.92S
$$

COZ086-089-092>099-030200-
...SOUTHEAST COLORADO...

CITY           SKY/WX    TMP DP  RH WIND       PRES   REMARKS
PUEBLO         CLEAR     85  46  25 E15       29.91S
LA JUNTA       CLEAR     85  55  35 SE20G31   29.91S
LAMAR          CLEAR     83  56  39 S14       29.90F
SPRINGFIELD      N/A     78  59  51 SE13      29.98S
$$


USA.gov is the U.S. government's official web portal to all federal, state and local government web resources and services.